Location: Bessat
(45.8735°N, 1.9924°E)
Time: 22:06:56
(UTC+00:00)

CRYOSAT 2 - Pass Details

Date: 11 May 2021
Orbit: 714 x 724 km, 92.0° (Epoch: 24 June)

Event Time Altitude Azimuth Distance (km) Brightness Sun altitude
Exits shadow 20:53:38 15° 178° (S) 1,913 6.1 -14.8°
Maximum altitude 20:57:47 81° 265° (W) 738 4.4 -15.3°
Drops below altitude 10° 21:02:43 10° 353° (N) 2,224 7.7 -15.8°
Sets 21:05:01 0° 355° (N) 3,148 8.6 -16.1°
